This is the latest recevied weather packets stored in our database for station/object KF5JED-13. If no packets are shown the sender has not sent any weather packets the latest 10 day(s).
| Time | Temp. | Humidity | Pressure | Rain* | Wind** | Luminosity | Snow |
|---|---|---|---|---|---|---|---|
| 1778211391 | 17.22° C | 38% | 1014 hPa | 0 mm | - | 0 W/m² | - |
| 1778211089 | 17.22° C | 38% | 1014.2 hPa | 0 mm | - | 0 W/m² | - |
| 1778210785 | 17.22° C | 38% | 1014.1 hPa | 0 mm | - | 0 W/m² | - |
| 1778210483 | 17.22° C | 38% | 1014.1 hPa | 0 mm | - | 0 W/m² | - |
| 1778210180 | 17.22° C | 37% | 1014.1 hPa | 0 mm | - | 0 W/m² | - |
| 1778209876 | 17.22° C | 36% | 1013.8 hPa | 0 mm | - | 0 W/m² | - |
| 1778209572 | 17.22° C | 36% | 1013.9 hPa | 0 mm | - | 0 W/m² | - |
| 1778209270 | 17.22° C | 36% | 1013.9 hPa | 0 mm | - | 0 W/m² | - |
| 1778208966 | 16.67° C | 37% | 1013.8 hPa | 0 mm | - | 0 W/m² | - |
| 1778208663 | 16.67° C | 36% | 1013.9 hPa | 0 mm | - | 0 W/m² | - |
| 1778208359 | 16.67° C | 35% | 1013.9 hPa | 0 mm | - | 0 W/m² | - |
| 1778208057 | 17.22° C | 34% | 1013.6 hPa | 0 mm | - | 0 W/m² | - |
| 1778207753 | 17.78° C | 33% | 1013.8 hPa | 0 mm | - | 0 W/m² | - |
| 1778207450 | 16.11° C | 35% | 1013.6 hPa | 0 mm | - | 0 W/m² | - |
| 1778207146 | 17.22° C | 33% | 1013.5 hPa | 0 mm | - | 0 W/m² | - |
| 1778206843 | 17.22° C | 33% | 1013.7 hPa | 0 mm | - | 0 W/m² | - |
| 1778206539 | 16.11° C | 34% | 1013.6 hPa | 0 mm | - | 0 W/m² | - |
| 1778206235 | 16.67° C | 32% | 1013.5 hPa | 0 mm | - | 0 W/m² | - |
| 1778205933 | 17.78° C | 31% | 1013.3 hPa | 0 mm | - | 0 W/m² | - |
| 1778205630 | 17.78° C | 31% | 1013.6 hPa | 0 mm | - | 0 W/m² | - |
| 1778205328 | 17.22° C | 31% | 1013.5 hPa | 0 mm | - | 0 W/m² | - |
| 1778205024 | 18.33° C | 30% | 1013.5 hPa | 0 mm | - | 1 W/m² | - |
| 1778204721 | 19.44° C | 28% | 1013.5 hPa | 0 mm | - | 2 W/m² | - |
| 1778204417 | 18.89° C | 29% | 1013.2 hPa | 0 mm | - | 3 W/m² | - |
| 1778204113 | 20° C | 29% | 1013.1 hPa | 0 mm | - | 5 W/m² | - |
* Rain latest hour (hover to see other rain measurements)
** Current wind speed in m/s (hover to see current wind gust speed)